This is the latest recevied weather packets stored in our database for station/object OK9CPU-9. If no packets are shown the sender has not sent any weather packets the latest 10 day(s).
| Time | Temp. | Humidity | Pressure | Rain* | Wind** | Luminosity | Snow |
|---|---|---|---|---|---|---|---|
| 1777764336 | 8.89° C | 28% | 1019.4 hPa | - | - | - | - |
| 1777763348 | 9.44° C | 28% | 1019.3 hPa | - | - | - | - |
| 1777762353 | 9.44° C | 28% | 1019.4 hPa | - | - | - | - |
| 1777761351 | 10° C | 28% | 1019.5 hPa | - | - | - | - |
| 1777760363 | 10° C | 28% | 1019.7 hPa | - | - | - | - |
| 1777759361 | 10.56° C | 28% | 1019.7 hPa | - | - | - | - |
| 1777758366 | 10.56° C | 28% | 1019.7 hPa | - | - | - | - |
| 1777757378 | 11.11° C | 28% | 1019.7 hPa | - | - | - | - |
| 1777756376 | 11.67° C | 29% | 1019.8 hPa | - | - | - | - |
| 1777755381 | 12.22° C | 29% | 1019.8 hPa | - | - | - | - |
| 1777754386 | 12.78° C | 29% | 1020 hPa | - | - | - | - |
| 1777753391 | 13.33° C | 29% | 1020 hPa | - | - | - | - |
| 1777752403 | 13.33° C | 29% | 1020.1 hPa | - | - | - | - |
| 1777751401 | 13.89° C | 29% | 1020.1 hPa | - | - | - | - |
| 1777750405 | 14.44° C | 29% | 1020.1 hPa | - | - | - | - |
| 1777749410 | 15.56° C | 29% | 1020 hPa | - | - | - | - |
| 1777747420 | 17.22° C | 29% | 1019.8 hPa | - | - | - | - |
| 1777746425 | 17.78° C | 28% | 1019.7 hPa | - | - | - | - |
| 1777745430 | 18.89° C | 28% | 1019.4 hPa | - | - | - | - |
| 1777744435 | 19.44° C | 27% | 1019.4 hPa | - | - | - | - |
| 1777743448 | 20.56° C | 27% | 1019.5 hPa | - | - | - | - |
| 1777742453 | 21.67° C | 27% | 1019.5 hPa | - | - | - | - |
| 1777741458 | 22.22° C | 26% | 1019.5 hPa | - | - | - | - |
| 1777740455 | 22.78° C | 26% | 1019.7 hPa | - | - | - | - |
| 1777739467 | 23.89° C | 26% | 1019.9 hPa | - | - | - | - |
* Rain since midnight (hover to see other rain measurements)
** Current wind speed in m/s (hover to see current wind gust speed)